TimeCST,TemperatureF,Dew PointF,Humidity,Sea Level PressureIn,VisibilityMPH,Wind Direction,Wind SpeedMPH,Gust SpeedMPH,PrecipitationIn,Events,Conditions,WindDirDegrees,DateUTC
12:15 AM,32.0,25.2,76,29.68,10.0,South,11.5,-,N/A,,Clear,170,2014-01-12 06:15:00
12:35 AM,31.8,24.8,75,29.67,10.0,South,10.4,-,N/A,,Clear,170,2014-01-12 06:35:00
12:55 AM,32.9,25.9,75,29.65,10.0,SSE,11.5,-,N/A,,Clear,160,2014-01-12 06:55:00
1:15 AM,33.4,25.5,73,29.63,10.0,SSE,11.5,-,N/A,,Clear,160,2014-01-12 07:15:00
1:35 AM,31.6,25.0,76,29.61,10.0,South,10.4,-,N/A,,Clear,170,2014-01-12 07:35:00
1:55 AM,32.0,25.5,77,29.60,10.0,South,8.1,-,N/A,,Clear,180,2014-01-12 07:55:00
2:15 AM,33.6,25.7,73,29.59,10.0,South,11.5,-,N/A,,Clear,180,2014-01-12 08:15:00
2:35 AM,33.1,25.5,74,29.59,10.0,South,8.1,-,N/A,,Clear,190,2014-01-12 08:35:00
2:55 AM,33.1,25.2,73,29.58,10.0,South,8.1,-,N/A,,Clear,180,2014-01-12 08:55:00
3:15 AM,36.7,25.7,64,29.58,10.0,South,11.5,-,N/A,,Clear,190,2014-01-12 09:15:00
3:35 AM,38.7,25.5,59,29.56,10.0,South,13.8,-,N/A,,Clear,190,2014-01-12 09:35:00
3:55 AM,38.1,24.8,59,29.56,10.0,South,12.7,-,N/A,,Clear,190,2014-01-12 09:55:00
4:15 AM,40.6,24.4,53,29.56,10.0,SSW,11.5,19.6,N/A,,Clear,210,2014-01-12 10:15:00
4:35 AM,40.3,24.3,53,29.55,10.0,SSW,15.0,-,N/A,,Clear,200,2014-01-12 10:35:00
4:55 AM,39.4,24.8,56,29.53,10.0,South,17.3,-,N/A,,Clear,190,2014-01-12 10:55:00
5:15 AM,39.2,24.8,56,29.53,10.0,South,13.8,-,N/A,,Clear,190,2014-01-12 11:15:00
5:35 AM,39.4,24.8,56,29.53,10.0,SSW,13.8,-,N/A,,Clear,200,2014-01-12 11:35:00
5:55 AM,39.4,24.6,56,29.52,10.0,SSW,15.0,20.7,N/A,,Clear,200,2014-01-12 11:55:00
6:15 AM,39.2,24.3,55,29.51,10.0,SSW,18.4,21.9,N/A,,Clear,210,2014-01-12 12:15:00
6:35 AM,39.0,24.1,55,29.50,10.0,SSW,13.8,21.9,N/A,,Clear,200,2014-01-12 12:35:00
6:55 AM,38.5,23.9,56,29.50,10.0,SSW,12.7,-,N/A,,Clear,210,2014-01-12 12:55:00
7:15 AM,38.7,23.9,55,29.50,10.0,SSW,13.8,19.6,N/A,,Clear,200,2014-01-12 13:15:00
7:35 AM,39.2,23.7,54,29.50,10.0,SSW,17.3,20.7,N/A,,Clear,210,2014-01-12 13:35:00
7:55 AM,38.5,23.7,55,29.49,10.0,SSW,13.8,20.7,N/A,,Clear,210,2014-01-12 13:55:00
8:15 AM,37.8,23.7,57,29.50,10.0,SSW,11.5,-,N/A,,Clear,210,2014-01-12 14:15:00
8:35 AM,37.4,23.9,58,29.50,10.0,SSW,9.2,-,N/A,,Clear,210,2014-01-12 14:35:00
8:55 AM,37.4,23.9,58,29.49,10.0,SSW,6.9,-,N/A,,Clear,210,2014-01-12 14:55:00
9:15 AM,37.6,24.3,59,29.50,10.0,SSW,6.9,-,N/A,,Clear,200,2014-01-12 15:15:00
9:35 AM,39.2,24.3,55,29.50,10.0,SW,10.4,-,N/A,,Clear,220,2014-01-12 15:35:00
9:55 AM,41.2,24.4,51,29.50,10.0,SSW,9.2,-,N/A,,Clear,210,2014-01-12 15:55:00
10:15 AM,44.2,24.4,46,29.50,10.0,SSW,13.8,-,N/A,,Clear,210,2014-01-12 16:15:00
10:35 AM,46.2,24.1,42,29.50,10.0,SW,15.0,20.7,N/A,,Clear,230,2014-01-12 16:35:00
10:55 AM,48.4,24.3,39,29.50,10.0,SW,10.4,-,N/A,,Clear,230,2014-01-12 16:55:00
11:15 AM,48.9,23.7,37,29.50,10.0,WSW,11.5,-,N/A,,Clear,240,2014-01-12 17:15:00
11:35 AM,49.6,24.1,37,29.49,10.0,WSW,9.2,-,N/A,,Clear,240,2014-01-12 17:35:00
11:55 AM,51.6,24.8,35,29.48,10.0,WSW,8.1,-,N/A,,Clear,250,2014-01-12 17:55:00
12:15 PM,53.6,25.0,33,29.46,10.0,West,6.9,-,N/A,,Clear,280,2014-01-12 18:15:00
12:35 PM,55.4,26.1,32,29.45,10.0,West,8.1,-,N/A,,Clear,280,2014-01-12 18:35:00
12:55 PM,54.1,27.9,36,29.45,10.0,NW,9.2,-,N/A,,Clear,310,2014-01-12 18:55:00
1:15 PM,52.9,28.6,39,29.45,10.0,NW,10.4,-,N/A,,Clear,310,2014-01-12 19:15:00
1:35 PM,52.3,28.9,41,29.45,10.0,NW,8.1,-,N/A,,Clear,310,2014-01-12 19:35:00
1:55 PM,51.3,29.3,43,29.45,10.0,NW,8.1,-,N/A,,Clear,320,2014-01-12 19:55:00
2:15 PM,51.1,29.1,43,29.46,10.0,WNW,9.2,-,N/A,,Clear,300,2014-01-12 20:15:00
2:35 PM,50.9,29.7,44,29.48,10.0,NW,11.5,-,N/A,,Clear,310,2014-01-12 20:35:00
2:55 PM,50.4,30.0,46,29.49,10.0,NNW,13.8,17.3,N/A,,Clear,330,2014-01-12 20:55:00
3:15 PM,49.6,29.8,47,29.51,10.0,NW,12.7,-,N/A,,Clear,320,2014-01-12 21:15:00
3:35 PM,48.9,29.7,47,29.52,10.0,NW,8.1,-,N/A,,Clear,320,2014-01-12 21:35:00
3:55 PM,48.2,29.3,48,29.53,10.0,NW,5.8,-,N/A,,Clear,310,2014-01-12 21:55:00
4:15 PM,45.9,28.9,52,29.54,10.0,WNW,5.8,-,N/A,,Clear,300,2014-01-12 22:15:00
4:35 PM,45.5,29.1,53,29.56,10.0,NNW,5.8,-,N/A,,Scattered Clouds,330,2014-01-12 22:35:00
4:55 PM,45.5,29.1,53,29.57,10.0,NW,5.8,-,N/A,,Mostly Cloudy,310,2014-01-12 22:55:00
5:15 PM,44.2,29.1,55,29.58,10.0,NW,6.9,-,N/A,,Overcast,320,2014-01-12 23:15:00
5:35 PM,44.6,29.3,55,29.58,10.0,NNW,5.8,-,N/A,,Overcast,330,2014-01-12 23:35:00
5:55 PM,43.5,29.1,57,29.59,10.0,NW,5.8,-,N/A,,Mostly Cloudy,320,2014-01-12 23:55:00
6:15 PM,43.0,29.3,59,29.60,10.0,NW,8.1,-,N/A,,Scattered Clouds,320,2014-01-13 00:15:00
6:35 PM,43.0,29.3,59,29.61,10.0,NW,6.9,-,N/A,,Mostly Cloudy,320,2014-01-13 00:35:00
6:55 PM,43.0,29.1,58,29.63,10.0,NW,10.4,-,N/A,,Overcast,310,2014-01-13 00:55:00
7:15 PM,42.8,28.6,57,29.63,10.0,NW,6.9,-,N/A,,Scattered Clouds,320,2014-01-13 01:15:00
7:35 PM,41.0,28.2,60,29.63,10.0,NW,8.1,-,N/A,,Clear,310,2014-01-13 01:35:00
7:55 PM,40.8,28.2,61,29.63,10.0,WNW,4.6,-,N/A,,Mostly Cloudy,300,2014-01-13 01:55:00
8:15 PM,43.0,28.9,58,29.63,10.0,West,6.9,-,N/A,,Overcast,280,2014-01-13 02:15:00
8:35 PM,42.4,29.7,61,29.64,10.0,WNW,6.9,-,N/A,,Overcast,300,2014-01-13 02:35:00
8:55 PM,45.9,30.4,55,29.64,10.0,North,6.9,-,N/A,,Overcast,350,2014-01-13 02:55:00
9:15 PM,43.3,31.1,62,29.64,10.0,WNW,5.8,-,N/A,,Overcast,290,2014-01-13 03:15:00
9:35 PM,42.6,30.6,62,29.65,10.0,West,5.8,-,N/A,,Overcast,280,2014-01-13 03:35:00
9:55 PM,43.0,29.8,60,29.66,10.0,WSW,3.5,-,N/A,,Overcast,250,2014-01-13 03:55:00
10:15 PM,42.8,30.2,61,29.68,10.0,West,5.8,-,N/A,,Overcast,270,2014-01-13 04:15:00
10:35 PM,42.8,29.3,59,29.66,10.0,West,8.1,-,N/A,,Overcast,280,2014-01-13 04:35:00
10:55 PM,46.2,27.1,47,29.66,10.0,NW,5.8,-,N/A,,Overcast,320,2014-01-13 04:55:00
11:15 PM,45.3,26.4,48,29.67,10.0,WNW,10.4,-,N/A,,Overcast,300,2014-01-13 05:15:00
11:35 PM,43.9,26.4,50,29.68,10.0,WNW,9.2,-,N/A,,Overcast,290,2014-01-13 05:35:00
11:55 PM,43.9,25.7,49,29.67,10.0,NW,11.5,-,N/A,,Overcast,310,2014-01-13 05:55:00